Temperature
23 24 24 23 23 23 23 22 21 22 23 23 23 23 22 21 20 19 19 18 17 16 14 13 13 12 12 12 12 12 12 11 11 11 11 10 10 10 11 11 11 12 12 11
22 23 23 23 23 23 23 23 22 22 22 24 23 22 21 20 20 19 19 18 17 15 14 13 13 12 12 12 12 12 11 11 11 11 11 11 11 11 11 11 11 11 11 11
22 23 22 22 23 23 23 23 23 22 23 23 23 22 21 20 20 19 19 18 17 15 14 13 13 12 12 12 12 12 11 11 11 11 11 11 11 11 11 11 11 11 11 12
22 21 20 23 24 23 22 22 23 23 23 22 22 21 20 19 19 19 18 17 16 15 14 13 13 12 12 12 12 12 11 12 12 12 11 11 11 11 11 11 11 11 11 11
21 21 21 23 22 21 21 21 22 21 21 21 20 20 21 21 19 18 18 17 16 15 14 13 13 12 12 12 12 12 12 12 12 11 11 11 11 11 11 11 11 11 11 11
20 19 19 22 21 21 21 20 21 20 20 20 20 20 21 20 19 18 17 16 16 15 14 13 13 12 12 12 12 12 12 11 11 11 11 11 11 11 11 11 11 11 11 11
20 20 21 21 20 20 19 19 19 18 19 19 20 19 19 19 18 17 16 16 16 15 14 13 12 12 11 12 12 12 11 11 11 11 11 11 11 11 11 10 10 10 11 10
19 18 19 20 19 18 17 16 17 17 17 18 18 18 18 18 18 17 16 15 15 15 14 13 12 11 11 11 11 11 11 11 11 11 11 10 11 10 10 10 10 10 10 10
18 18 19 18 16 15 14 14 14 15 16 16 17 17 17 18 18 17 16 15 15 15 14 13 12 11 11 11 11 11 11 11 11 10 10 10 10 10 10 10 10 10 10 10
17 18 17 15 14 12 12 12 12 13 13 14 15 15 16 16 17 17 16 15 14 14 14 13 12 11 11 11 11 10 10 10 10 10 10 10 10 10 10 10 10 10 10 10
16 15 13 13 11 10 11 11 11 12 12 12 12 13 13 14 15 16 16 15 14 14 14 13 12 12 11 11 10 10 10 10 10 10 10 10 10 10 10 10 10 10 10 10
11 8 9 9 9 9 9 10 10 11 12 12 11 11 11 12 13 13 14 14 14 14 14 13 12 12 11 11 10 10 10 10 10 10 10 10 10 9 9 9 9 9 9 9
6 6 7 7 7 8 8 9 10 10 11 11 11 11 10 10 10 11 12 13 13 14 14 13 13 12 11 11 10 10 10 10 10 10 10 10 10 10 9 9 9 9 9 8
5 5 6 6 7 7 8 8 9 10 10 11 11 10 10 10 9 9 10 11 12 13 13 13 13 12 12 11 11 10 10 10 10 10 10 10 10 10 10 9 9 8 8 8
6 6 6 7 7 8 8 9 9 9 10 10 10 10 10 9 9 9 9 9 11 12 12 13 13 12 12 11 11 10 10 10 10 10 10 10 10 10 10 10 10 9 8 8
7 7 8 8 8 9 9 9 9 9 9 9 10 10 10 9 9 9 9 9 9 10 12 12 13 13 12 11 11 11 10 10 10 10 10 10 10 10 10 10 10 10 9 9
7 8 8 9 8 8 8 8 8 8 8 8 8 9 9 9 9 8 8 8 8 9 10 11 12 12 12 12 11 11 11 10 9 9 10 10 10 10 10 10 10 10 10 10
8 8 8 8 8 8 8 8 8 7 7 7 7 8 8 8 8 8 8 8 8 8 9 10 11 12 12 12 11 11 11 10 9 10 10 10 10 10 10 10 11 11 10 10
9 9 8 8 8 8 8 8 7 7 7 7 7 7 7 7 8 8 8 8 8 8 8 9 10 11 11 11 11 11 11 11 10 10 10 10 10 10 11 11 11 11 11 10
8 8 8 8 8 8 7 7 7 6 6 6 6 6 6 7 7 8 8 7 8 8 7 8 9 10 10 11 11 11 11 11 10 10 10 10 10 10 11 11 11 11 11 11
7 7 7 7 7 7 7 7 6 6 5 5 5 5 5 6 7 7 7 7 8 8 7 7 8 9 10 10 11 11 12 11 11 11 10 10 10 10 11 11 11 11 11 11
6 6 6 7 6 6 6 6 6 5 4 4 4 5 5 6 7 7 7 7 8 8 8 7 8 8 9 10 10 11 12 11 11 11 11 11 11 11 11 11 11 11 11 11
5 6 6 6 6 6 5 5 5 4 4 3 3 4 4 5 6 7 7 8 8 8 8 7 7 8 8 9 9 11 12 12 12 11 11 11 11 11 11 11 11 11 11 11
5 5 5 5 5 5 5 4 4 3 3 3 3 3 4 5 6 7 7 8 8 7 7 7 7 8 8 8 9 10 11 12 12 12 12 11 11 11 11 11 11 11 11 11
5 5 5 5 4 4 4 3 3 3 3 3 3 3 4 4 5 6 7 8 8 7 7 7 7 8 8 8 9 10 11 12 12 12 12 12 12 12 12 12 12 12 12 12
4 4 5 4 4 4 3 2 2 2 3 3 3 3 4 4 5 6 6 7 7 7 7 8 8 8 8 8 9 10 11 11 12 12 12 12 12 12 12 12 12 12 12 12
5 5 5 4 4 3 2 2 2 2 3 3 4 4 4 4 5 6 6 7 7 8 8 8 8 8 8 9 9 10 10 11 11 11 12 12 12 12 12 12 12 12 11 11
Wind_Speed
17 18 18 19 20 19 19 21 23 24 23 20 18 16 14 11 10 10 11 10 8 6 5 4 4 4 4 3 2 1 1 2 5 6 7 7 8 7 6 6 7 7 8 8
17 17 17 20 21 21 21 21 22 23 23 19 15 13 11 10 10 11 11 10 8 6 6 6 6 6 6 4 3 3 3 4 8 9 9 9 9 8 8 7 8 8 9 9
12 10 12 12 10 11 13 14 17 19 18 17 18 16 14 11 10 11 10 9 8 7 7 7 7 7 7 5 4 4 4 4 7 10 10 10 10 9 8 8 9 9 9 10
10 9 8 6 8 11 14 15 15 17 18 18 17 15 13 12 11 11 9 8 8 8 8 8 8 8 7 6 5 4 4 4 7 9 11 10 9 9 8 8 8 9 9 11
8 11 12 9 6 10 12 16 13 11 13 14 14 13 14 9 8 9 8 8 8 9 9 9 9 9 9 8 7 6 5 5 7 9 11 11 11 11 9 8 9 9 9 11
9 11 7 5 9 11 12 13 5 13 18 19 19 17 14 11 8 9 9 9 9 9 10 10 10 9 10 10 9 8 6 6 7 8 10 11 11 11 10 9 9 9 9 10
12 12 8 5 11 15 12 12 21 24 25 24 22 19 20 20 16 12 11 11 11 11 11 11 11 10 11 10 10 9 7 7 7 8 8 9 9 9 10 9 9 9 10 9
7 7 5 11 15 12 15 21 23 24 24 24 24 24 23 21 17 14 13 13 13 13 12 12 12 12 12 11 9 9 9 9 9 9 9 9 9 9 10 10 11 10 10 9
7 9 12 14 13 15 17 19 20 21 23 23 24 23 22 21 19 16 14 14 14 15 14 13 13 13 12 11 10 10 10 10 10 10 9 9 10 10 10 10 10 10 10 9
11 10 11 12 14 17 18 18 20 20 21 20 21 22 21 20 19 17 14 14 15 16 15 15 14 14 12 11 11 12 12 11 11 11 10 10 9 9 10 10 10 10 10 9
12 10 11 11 17 19 21 21 21 21 20 19 20 19 19 18 19 17 14 12 15 17 17 17 16 15 13 12 12 13 13 12 12 11 10 10 9 7 8 9 8 9 9 9
6 12 11 13 18 21 21 22 22 23 22 20 18 19 19 18 17 17 15 12 15 18 18 18 17 16 15 14 14 14 13 12 11 10 10 10 10 9 6 5 9 6 4 4
9 14 12 15 19 21 20 23 23 23 22 21 19 18 18 17 17 18 16 13 15 19 20 19 19 18 17 16 16 15 14 12 11 11 11 11 11 11 10 6 6 6 6 6
11 12 12 16 18 20 21 23 24 25 23 22 20 19 18 17 17 18 18 16 14 17 19 19 20 20 19 18 17 17 15 13 11 11 11 11 12 12 12 12 12 10 8 10
11 11 13 16 19 20 21 22 23 24 24 24 23 21 19 18 17 16 17 19 15 15 18 20 21 20 20 20 19 18 16 13 12 12 12 12 12 12 12 14 13 13 13 11
16 17 18 20 22 23 24 24 24 24 25 26 25 24 22 20 18 14 13 16 16 14 16 19 20 20 21 21 20 17 16 14 13 13 13 13 13 13 12 13 13 13 14 14
19 21 24 24 25 25 25 24 25 26 26 27 27 27 25 23 20 16 12 11 14 15 14 17 19 19 21 22 21 17 16 15 15 14 14 14 14 14 13 13 13 13 13 14
21 23 25 26 25 26 26 26 25 26 26 27 28 27 26 24 22 19 14 11 12 13 14 15 16 18 20 22 20 17 16 15 16 16 14 14 15 14 14 14 15 15 13 14
24 25 25 26 25 25 25 25 26 26 26 27 27 27 26 25 23 20 15 12 11 11 11 12 13 15 19 21 20 16 17 17 17 17 16 15 15 16 15 16 16 16 15 14
27 27 26 26 26 25 25 24 25 25 25 26 27 27 26 25 23 20 17 13 9 6 8 11 10 13 17 20 20 18 18 18 18 18 17 17 17 17 16 17 16 16 15 14
27 27 27 27 26 26 25 25 24 25 25 25 26 26 25 24 23 20 16 14 11 6 6 9 8 10 13 15 19 19 19 19 18 18 18 18 18 18 18 17 17 15 15 14
27 26 27 27 27 27 25 24 24 25 25 25 25 25 24 23 21 19 17 13 11 7 6 5 6 9 10 13 17 19 19 19 18 18 18 18 18 19 18 18 17 16 15 15
25 26 27 27 27 27 27 25 24 22 23 24 24 24 23 21 17 16 15 12 10 9 8 7 7 9 9 11 15 19 20 20 19 19 18 18 19 18 18 19 18 17 16 15
25 26 26 26 26 26 26 26 24 22 23 23 22 23 21 18 16 15 14 11 12 11 10 9 11 11 10 10 14 17 18 19 19 19 19 18 18 18 18 18 18 17 17 18
25 25 26 25 24 21 23 25 25 24 22 18 20 21 18 16 15 14 13 13 12 11 11 12 14 13 11 11 14 16 17 18 19 19 19 18 18 18 18 18 18 17 17 17
24 22 21 22 21 19 18 19 20 19 18 17 15 14 14 14 15 14 13 14 16 13 12 11 11 12 11 12 14 16 17 17 18 18 19 19 20 19 18 18 20 18 16 16
24 21 19 20 20 19 19 20 21 20 18 16 15 13 13 13 13 13 14 13 12 11 11 11 11 10 11 12 14 15 15 15 16 18 17 17 16 17 18 19 16 16 15 15
Wind_Direction
280 286 286 283 280 277 266 263 272 281 288 296 306 312 309 302 295 293 292 289 288 284 274 262 247 240 247 252 260 311 295 152 160 162 170 171 176 179 165 148 136 131 128 122
284 282 281 279 276 275 273 270 268 274 279 287 298 305 299 292 286 292 297 289 280 263 247 241 239 239 246 250 259 267 245 197 177 173 178 176 173 167 154 141 134 132 125 117
289 304 295 278 280 288 287 278 274 277 286 301 306 304 298 292 289 295 297 286 269 253 239 236 237 238 244 243 250 252 234 197 178 173 175 173 165 157 149 142 135 128 123 115
289 299 274 291 322 307 298 293 294 293 297 303 307 308 293 278 276 284 284 272 258 247 237 231 232 232 236 238 244 244 228 191 172 168 164 160 160 154 150 145 138 134 131 125
280 290 291 296 341 340 316 301 309 326 330 326 327 308 288 276 248 259 261 252 246 238 233 227 225 225 228 234 238 234 221 190 173 164 161 163 164 160 155 151 145 145 140 138
277 288 284 338 20 347 311 290 12 339 327 322 318 305 308 329 298 260 239 229 224 222 222 219 219 220 226 233 235 231 215 188 172 167 165 166 162 160 155 152 149 146 140 145
274 276 273 12 353 331 303 323 334 320 311 305 303 301 302 302 294 272 244 227 215 211 211 214 212 214 226 234 234 227 207 184 173 166 160 156 154 154 153 154 148 140 137 136
280 271 273 4 342 336 322 319 314 310 306 302 299 298 297 295 291 274 251 235 216 206 206 206 207 210 224 231 228 216 201 187 174 166 161 155 156 156 156 152 148 144 141 138
280 274 316 339 341 344 339 328 323 318 314 308 303 298 297 295 292 282 257 238 220 208 203 200 201 209 222 223 214 206 197 186 175 168 164 162 163 161 162 166 167 161 158 153
280 276 321 340 358 354 347 340 337 333 327 322 314 309 304 299 294 286 268 239 220 210 203 200 200 206 217 214 202 201 195 184 176 173 172 170 173 174 176 178 176 172 168 162
279 313 341 340 353 347 341 339 339 337 336 335 331 324 319 311 301 293 277 243 221 212 205 200 197 200 206 203 198 200 194 186 184 185 182 177 183 178 189 184 179 178 175 171
348 356 331 333 342 340 337 334 332 330 330 334 337 334 331 325 320 312 293 255 226 216 208 200 195 197 198 197 197 200 195 191 190 191 185 186 179 169 65 88 110 108 107 162
2 342 343 345 339 338 333 328 325 324 324 327 330 331 333 332 330 324 311 278 241 223 211 200 195 195 194 194 196 201 201 195 195 194 189 193 189 184 173 133 105 124 127 112
357 350 339 336 327 325 324 322 321 318 318 319 321 323 327 329 333 334 326 306 270 240 222 206 198 196 192 192 196 200 203 196 199 197 195 197 196 193 185 176 173 173 162 142
332 320 304 305 309 312 313 313 313 312 313 313 314 315 318 321 323 328 329 322 296 256 232 214 203 198 193 192 195 200 203 199 198 200 198 199 196 195 191 186 182 176 169 163
311 309 306 307 308 309 309 310 309 308 308 308 309 310 311 310 310 315 326 330 317 283 247 223 210 201 192 192 194 198 202 197 191 198 198 197 195 195 192 187 184 180 178 176
302 307 309 309 308 307 306 306 306 306 306 307 307 306 305 302 301 304 314 324 318 304 275 243 223 206 194 191 193 197 197 189 187 200 199 195 194 194 192 189 187 185 184 175
298 298 300 301 301 301 301 300 300 301 302 303 303 302 300 298 295 295 297 305 313 309 290 264 238 216 200 193 194 197 194 188 191 200 199 196 194 194 193 192 191 189 185 172
306 304 302 301 301 300 299 300 301 302 302 302 300 298 295 292 290 287 284 287 295 304 302 289 263 227 206 198 192 195 193 190 189 197 199 192 194 196 195 194 193 192 192 187
314 312 310 308 307 305 303 300 301 301 301 301 299 296 293 290 287 284 276 271 269 271 294 300 278 235 215 200 193 196 194 193 191 194 196 194 197 199 197 197 198 198 199 200
319 317 314 312 310 307 304 301 299 299 300 298 296 294 292 289 285 281 273 269 262 244 266 289 278 249 223 203 197 201 195 194 195 195 196 197 197 200 201 201 202 205 206 207
319 317 315 313 311 309 307 305 300 298 297 295 293 292 291 287 283 278 268 262 259 226 226 253 265 266 251 214 204 208 199 195 196 196 197 199 199 201 203 204 206 208 211 213
317 316 314 314 312 311 308 306 303 301 297 294 291 289 286 283 280 276 272 261 252 227 222 232 237 263 267 235 214 212 205 198 197 197 198 200 202 203 205 207 208 210 211 213
316 315 314 313 313 311 310 309 307 302 296 291 286 283 280 278 272 264 262 256 241 231 234 226 221 235 240 233 223 216 212 205 200 199 199 200 203 204 206 208 209 211 213 216
314 313 312 313 315 313 311 311 309 304 297 290 283 279 275 270 268 267 265 261 249 234 240 225 213 218 223 225 222 218 215 211 206 202 201 202 203 205 206 208 210 213 215 218
313 311 310 310 313 312 314 314 310 306 301 292 283 275 271 268 265 261 259 259 255 241 239 232 217 208 215 219 220 218 216 211 210 211 209 205 206 207 209 209 212 214 219 222
313 313 313 315 317 318 318 316 313 309 305 297 288 276 269 266 263 258 257 256 255 246 235 226 218 210 213 215 216 216 216 215 212 211 214 214 212 211 211 212 213 214 216 220
Height
1505 1501 1500 1500 1500 1498 1500 1500 1500 1492 1487 1483 1481 1481 1480 1481 1481 1481 1480 1479 1478 1477 1476 1475 1474 1474 1473 1473 1471 1469 1467 1466 1466 1467 1469 1470 1473 1476 1477 1478 1480 1481 1482 1483
1506 1500 1497 1497 1493 1492 1490 1488 1487 1486 1483 1478 1477 1478 1479 1478 1478 1477 1476 1475 1475 1474 1473 1472 1472 1472 1472 1471 1470 1468 1467 1466 1466 1467 1469 1472 1474 1477 1478 1479 1481 1482 1484 1485
1504 1495 1498 1497 1487 1485 1483 1479 1480 1481 1477 1474 1474 1475 1475 1475 1474 1473 1472 1471 1471 1471 1471 1470 1470 1470 1470 1470 1468 1467 1466 1466 1466 1467 1469 1471 1474 1476 1478 1480 1482 1483 1485 1486
1503 1502 1508 1488 1481 1483 1484 1480 1477 1475 1474 1474 1474 1473 1473 1471 1470 1469 1468 1468 1468 1468 1467 1467 1467 1467 1467 1467 1467 1466 1465 1465 1465 1466 1468 1471 1473 1475 1478 1480 1482 1483 1485 1487
1503 1501 1495 1484 1484 1487 1487 1483 1478 1478 1477 1476 1474 1471 1466 1464 1465 1465 1465 1464 1464 1464 1464 1464 1464 1464 1465 1465 1465 1465 1464 1464 1464 1465 1467 1469 1472 1474 1476 1479 1481 1483 1485 1487
1502 1508 1504 1487 1488 1489 1488 1483 1479 1480 1478 1476 1473 1468 1463 1464 1463 1461 1460 1459 1458 1459 1459 1460 1460 1461 1462 1462 1462 1462 1462 1463 1463 1464 1466 1468 1470 1472 1475 1477 1480 1483 1484 1486
1502 1501 1489 1486 1489 1488 1491 1485 1483 1482 1479 1475 1471 1468 1465 1462 1460 1458 1456 1454 1453 1453 1454 1455 1456 1457 1458 1459 1459 1459 1460 1460 1461 1463 1464 1466 1468 1471 1473 1476 1479 1481 1483 1485
1502 1505 1497 1490 1491 1494 1494 1490 1485 1480 1476 1471 1467 1462 1459 1456 1454 1453 1451 1449 1448 1448 1448 1449 1451 1453 1454 1454 1455 1456 1457 1458 1459 1461 1463 1465 1467 1469 1472 1475 1477 1480 1482 1485
1503 1500 1494 1495 1496 1497 1495 1490 1484 1479 1472 1467 1462 1457 1454 1451 1448 1446 1445 1443 1442 1442 1442 1444 1445 1447 1449 1450 1451 1452 1453 1455 1457 1459 1461 1463 1466 1468 1471 1474 1477 1479 1482 1484
1498 1492 1495 1497 1497 1497 1494 1489 1484 1478 1471 1464 1458 1453 1449 1445 1442 1440 1438 1436 1435 1436 1437 1438 1440 1442 1444 1446 1447 1449 1450 1452 1454 1457 1459 1462 1464 1467 1469 1472 1475 1478 1480 1482
1498 1498 1500 1498 1499 1496 1491 1486 1480 1475 1470 1464 1457 1451 1445 1441 1437 1434 1432 1430 1428 1428 1429 1431 1433 1436 1439 1441 1443 1445 1447 1449 1452 1454 1457 1459 1462 1464 1467 1470 1473 1476 1478 1480
1509 1512 1509 1504 1501 1496 1491 1485 1479 1473 1467 1461 1456 1449 1443 1437 1432 1428 1425 1423 1421 1421 1422 1425 1427 1430 1433 1436 1439 1441 1444 1446 1449 1452 1454 1456 1459 1461 1463 1467 1469 1472 1476 1479
1517 1513 1509 1505 1500 1494 1489 1484 1478 1471 1465 1459 1453 1447 1441 1435 1429 1423 1419 1417 1415 1414 1415 1417 1420 1424 1427 1431 1434 1437 1440 1442 1445 1448 1450 1453 1455 1458 1460 1463 1466 1469 1472 1475
1514 1510 1505 1501 1496 1491 1486 1480 1474 1468 1461 1455 1449 1443 1438 1432 1425 1419 1415 1411 1409 1409 1410 1411 1413 1416 1420 1424 1428 1432 1435 1438 1441 1443 1446 1449 1452 1454 1457 1460 1463 1466 1469 1473
1511 1508 1503 1498 1492 1486 1480 1474 1468 1461 1455 1449 1443 1438 1432 1427 1421 1415 1409 1405 1403 1402 1402 1405 1406 1410 1414 1418 1422 1426 1430 1433 1436 1439 1442 1445 1448 1451 1454 1457 1460 1464 1467 1469
1506 1501 1497 1491 1485 1479 1473 1467 1461 1455 1449 1442 1437 1431 1426 1422 1417 1410 1404 1400 1397 1395 1395 1397 1399 1402 1406 1411 1415 1420 1424 1427 1430 1434 1437 1440 1443 1446 1450 1453 1457 1460 1464 1466
1500 1493 1487 1481 1476 1471 1465 1460 1455 1448 1442 1436 1430 1424 1419 1414 1410 1405 1399 1394 1390 1388 1388 1390 1393 1396 1399 1403 1407 1413 1417 1420 1424 1428 1432 1435 1438 1442 1445 1449 1453 1456 1460 1463
1493 1487 1481 1475 1468 1462 1456 1451 1445 1440 1434 1428 1422 1416 1411 1406 1402 1397 1393 1389 1384 1381 1380 1382 1386 1389 1392 1395 1400 1405 1410 1413 1417 1422 1426 1430 1434 1437 1441 1445 1449 1453 1456 1460
1484 1478 1472 1466 1460 1454 1447 1441 1436 1430 1424 1419 1413 1407 1402 1397 1393 1389 1386 1383 1379 1376 1373 1374 1377 1381 1384 1388 1393 1398 1403 1407 1411 1416 1421 1425 1429 1433 1437 1440 1444 1448 1452 1455
1475 1468 1462 1456 1451 1445 1439 1432 1426 1420 1414 1409 1403 1397 1391 1387 1384 1381 1378 1375 1373 1370 1368 1367 1368 1372 1377 1381 1386 1391 1396 1400 1404 1409 1414 1419 1423 1427 1431 1435 1439 1443 1447 1450
1466 1460 1454 1447 1441 1435 1430 1423 1417 1410 1404 1398 1392 1386 1381 1376 1374 1371 1369 1367 1365 1364 1363 1361 1362 1365 1370 1374 1379 1385 1389 1394 1398 1402 1407 1412 1417 1421 1425 1430 1434 1437 1441 1444
1460 1453 1446 1439 1432 1425 1419 1413 1406 1399 1392 1386 1380 1375 1370 1366 1363 1361 1360 1359 1358 1357 1356 1355 1356 1359 1363 1368 1372 1378 1382 1387 1391 1396 1401 1405 1410 1414 1419 1423 1427 1431 1434 1438
1454 1447 1439 1432 1424 1416 1409 1402 1395 1388 1380 1374 1368 1364 1360 1356 1354 1353 1351 1350 1350 1350 1350 1350 1350 1352 1355 1360 1365 1370 1375 1379 1384 1389 1393 1398 1403 1407 1412 1416 1420 1424 1428 1431
1448 1440 1432 1424 1416 1407 1399 1390 1383 1375 1368 1361 1356 1351 1348 1346 1343 1343 1342 1342 1342 1342 1343 1343 1344 1346 1349 1353 1358 1363 1368 1372 1377 1382 1386 1391 1396 1400 1405 1409 1413 1417 1421 1424
1442 1434 1425 1417 1408 1399 1390 1380 1371 1362 1354 1347 1342 1339 1336 1335 1334 1333 1334 1334 1334 1334 1335 1336 1337 1339 1342 1345 1350 1355 1360 1365 1370 1375 1379 1384 1388 1393 1397 1402 1406 1410 1413 1417
1435 1427 1419 1410 1402 1391 1381 1371 1360 1350 1341 1334 1329 1326 1325 1324 1324 1325 1325 1325 1326 1327 1328 1329 1330 1333 1335 1338 1343 1347 1352 1357 1362 1367 1372 1377 1381 1386 1390 1394 1398 1402 1406 1410
1428 1420 1411 1402 1393 1383 1373 1362 1350 1339 1331 1324 1319 1316 1315 1315 1315 1316 1317 1317 1318 1319 1320 1322 1324 1326 1329 1332 1336 1340 1345 1350 1355 1360 1364 1369 1373 1378 1382 1387 1391 1395 1399 1402